SGDC (42692 NORAD) Tracking and Keplerian Element Data

This shows tracking and keplerian element data for the satellite.

Feedback or suggestion? Click here.




ElementValue
Catalog42692
NameSGDC
Epoch Orbit444
Epoch Day198.38807675
Epoch Year2018
RAAN52.7428
Inclination0.0082
Eccentricity0.0002026
Argument of Perigee61.3023
Mean Anonmoly245.958
Mean Motion1.00271843
Decay Rate-2.69E-06
L11 42692U 17023B 18198.38807675 -.00000269 00000-0 00000-0 0 9995
L22 42692 0.0082 52.7428 0002026 61.3023 245.9580 1.00271843 4449

Live tracking and technical data element details for SGDC (NORAD 42692). SGDC can be tracked NOW for your location showing map with azimuth and elevation plus other details from your city location.

Track the satellite on the map from your city or location and see movement details for azimuth, elevation, latitude, longitude, range, height, and movement on the map or in text.







IsCatalogInMostPopularTable: catalog: 42692, numindb: 91
Update: records affected: 1



GetName: 42692 SGDC

Hit Count: updated at: Fri, 20 Jul 2018 20:22:08 GMT